Location: Unspecified
(0.0000°N, 0.0000°E)
Time: 06:46:07
(UTC+00:00)

Vanguard 2 Rocket - Pass Details

Date: 04 October 2023
Orbit: 552 x 3312 km, 32.9° (Epoch: 06 December)

Event Time Altitude Azimuth Distance (km) Brightness Sun altitude
Rises 05:21:56 0° 234° (SW) 3,301 9.3 -6.7°
Reaches altitude 10° 05:23:55 10° 233° (SW) 2,568 8.8 -6.2°
Maximum altitude 05:30:04 86° 145° (SE) 1,271 7.7 -4.7°
Drops below altitude 10° 05:41:17 10° 56° (NE) 4,490 11.3 -1.9°
Sets 05:45:53 0° 55° (NE) 5,943 12.0 -0.7°
